| time (UTC) | temp C | wind direction | speed KPH | gust KPH | rain 1hr cm | rain 24hr cm | rain mn cm | humidity % | barometer mb |
| 20260504050748 | 32 | 0.0 | 0.0 | 0.00 | 0.00 | 0.00 | 21 | 1003.9 | |
| 20260504045748 | 31 | 0.0 | 0.0 | 0.00 | 0.00 | 0.00 | 22 | 1004.1 | |
| 20260504044748 | 33 | 0.0 | 0.0 | 0.00 | 0.00 | 0.00 | 21 | 1003.6 | |
| 20260504043748 | 40 | 0.0 | 0.0 | 0.00 | 0.00 | 0.00 | 16 | 1002.1 | |
| 20260504042748 | 36 | 0.0 | 0.0 | 0.00 | 0.00 | 0.00 | 19 | 1002.9 | |
| 20260504041748 | 38 | 0.0 | 0.0 | 0.00 | 0.00 | 0.00 | 17 | 1002.2 | |
| 20260504040748 | 35 | 0.0 | 0.0 | 0.00 | 0.00 | 0.00 | 20 | 1003.4 | |
| 20260504035753 | 36 | 0.0 | 0.0 | 0.00 | 0.00 | 0.00 | 18 | 1003.0 | |
| 20260504034748 | 33 | 0.0 | 0.0 | 0.00 | 0.00 | 0.00 | 21 | 1004.0 | |
| 20260504033748 | 40 | 0.0 | 0.0 | 0.00 | 0.00 | 0.00 | 17 | 1002.2 | |
| 20260504032748 | 35 | 0.0 | 0.0 | 0.00 | 0.00 | 0.00 | 20 | 1003.6 | |
| 20260504031748 | 36 | 0.0 | 0.0 | 0.00 | 0.00 | 0.00 | 18 | 1003.2 | |
| 20260504030748 | 37 | 0.0 | 0.0 | 0.00 | 0.00 | 0.00 | 18 | 1003.0 | |
| 20260504025748 | 38 | 0.0 | 0.0 | 0.00 | 0.00 | 0.00 | 17 | 1002.5 | |
| 20260504024748 | 38 | 0.0 | 0.0 | 0.00 | 0.00 | 0.00 | 17 | 1002.7 | |
| 20260504023748 | 36 | 0.0 | 0.0 | 0.00 | 0.00 | 0.00 | 19 | 1003.3 | |
| 20260504022748 | 36 | 0.0 | 0.0 | 0.00 | 0.00 | 0.00 | 18 | 1003.1 | |
| 20260504021748 | 35 | 0.0 | 0.0 | 0.00 | 0.00 | 0.00 | 20 | 1003.4 | |
| 20260504020748 | 40 | 0.0 | 0.0 | 0.00 | 0.00 | 0.00 | 16 | 1002.0 | |
| 20260504015748 | 40 | 0.0 | 0.0 | 0.00 | 0.00 | 0.00 | 16 | 1002.0 | |
| 20260504014748 | 42 | 0.0 | 0.0 | 0.00 | 0.00 | 0.00 | 15 | 1001.7 | |
| 20260504013748 | 39 | 0.0 | 0.0 | 0.00 | 0.00 | 0.00 | 16 | 1002.5 | |
| 20260504012748 | 41 | 0.0 | 0.0 | 0.00 | 0.00 | 0.00 | 16 | 1002.0 | |
| 20260504011748 | 41 | 0.0 | 0.0 | 0.00 | 0.00 | 0.00 | 16 | 1002.0 | |
| 20260504010748 | 41 | 0.0 | 0.0 | 0.00 | 0.00 | 0.00 | 16 | 1001.9 | |
| 20260504005748 | 40 | 0.0 | 0.0 | 0.00 | 0.00 | 0.00 | 17 | 1002.3 | |
| 20260504004748 | 42 | 0.0 | 0.0 | 0.00 | 0.00 | 0.00 | 15 | 1001.6 | |
| 20260504003748 | 42 | 0.0 | 0.0 | 0.00 | 0.00 | 0.00 | 15 | 1001.7 | |
| 20260504002748 | 38 | 0.0 | 0.0 | 0.00 | 0.00 | 0.00 | 17 | 1002.7 | |
| 20260504001748 | 42 | 0.0 | 0.0 | 0.00 | 0.00 | 0.00 | 15 | 1001.8 | |
| 20260504000748 | 40 | 0.0 | 0.0 | 0.00 | 0.00 | 0.00 | 17 | 1002.5 | |
| 20260503235748 | 42 | 0.0 | 0.0 | 0.00 | 0.00 | 0.00 | 16 | 1001.9 | |
| 20260503234748 | 43 | 0.0 | 0.0 | 0.00 | 0.00 | 0.00 | 15 | 1001.7 | |
| 20260503233748 | 44 | 0.0 | 0.0 | 0.00 | 0.00 | 0.00 | 14 | 1001.3 | |
| 20260503232748 | 42 | 0.0 | 0.0 | 0.00 | 0.00 | 0.00 | 16 | 1002.0 | |
| 20260503231748 | 42 | 0.0 | 0.0 | 0.00 | 0.00 | 0.00 | 16 | 1002.1 | |
| 20260503230748 | 41 | 0.0 | 0.0 | 0.00 | 0.00 | 0.00 | 16 | 1002.2 | |
| 20260503225748 | 41 | 0.0 | 0.0 | 0.00 | 0.00 | 0.00 | 16 | 1002.2 | |
| 20260503224748 | 42 | 0.0 | 0.0 | 0.00 | 0.00 | 0.00 | 16 | 1001.8 | |
| 20260503223748 | 46 | 0.0 | 0.0 | 0.00 | 0.00 | 0.00 | 14 | 1001.1 | |
| 20260503222748 | 46 | 0.0 | 0.0 | 0.00 | 0.00 | 0.00 | 13 | 1001.0 | |
| 20260503221748 | 45 | 0.0 | 0.0 | 0.00 | 0.00 | 0.00 | 15 | 1001.5 | |
| 20260503220748 | 50 | 0.0 | 0.0 | 0.00 | 0.00 | 0.00 | 12 | 1000.2 | |
| 20260503215748 | 42 | 0.0 | 0.0 | 0.00 | 0.00 | 0.00 | 17 | 1002.0 | |
| 20260503214748 | 44 | 0.0 | 0.0 | 0.00 | 0.00 | 0.00 | 16 | 1001.6 | |
| 20260503213748 | 36 | 0.0 | 0.0 | 0.00 | 0.00 | 0.00 | 21 | 1003.6 | |
| 20260503212748 | 37 | 0.0 | 0.0 | 0.00 | 0.00 | 0.00 | 19 | 1003.4 | |
| 20260503211748 | 35 | 0.0 | 0.0 | 0.00 | 0.00 | 0.00 | 21 | 1003.9 | |
| 20260503210748 | 39 | 0.0 | 0.0 | 0.00 | 0.00 | 0.00 | 19 | 1002.7 | |
| 20260503205748 | 37 | 0.0 | 0.0 | 0.00 | 0.00 | 0.00 | 20 | 1003.1 | |
| 20260503204748 | 38 | 0.0 | 0.0 | 0.00 | 0.00 | 0.00 | 20 | 1002.7 | |
| 20260503203748 | 40 | 0.0 | 0.0 | 0.00 | 0.00 | 0.00 | 18 | 1002.2 | |
| 20260503202748 | 36 | 0.0 | 0.0 | 0.00 | 0.00 | 0.00 | 22 | 1003.0 | |
| 20260503201748 | 35 | 0.0 | 0.0 | 0.00 | 0.00 | 0.00 | 24 | 1003.1 | |
| 20260503200748 | 34 | 0.0 | 0.0 | 0.00 | 0.00 | 0.00 | 24 | 1003.2 | |
| 20260503195748 | 39 | 0.0 | 0.0 | 0.00 | 0.00 | 0.00 | 19 | 1001.8 | |
| 20260503194747 | 36 | 0.0 | 0.0 | 0.00 | 0.00 | 0.00 | 21 | 1002.2 | |
| 20260503193748 | 38 | 0.0 | 0.0 | 0.00 | 0.00 | 0.00 | 20 | 1001.9 | |
| 20260503192748 | 36 | 0.0 | 0.0 | 0.00 | 0.00 | 0.00 | 20 | 1002.3 | |
| 20260503191748 | 35 | 0.0 | 0.0 | 0.00 | 0.00 | 0.00 | 21 | 1002.2 | |
| 20260503190748 | 38 | 0.0 | 0.0 | 0.00 | 0.00 | 0.00 | 19 | 1001.3 | |
| 20260503185748 | 36 | 0.0 | 0.0 | 0.00 | 0.00 | 0.00 | 20 | 1001.7 | |
| 20260503184748 | 37 | 0.0 | 0.0 | 0.00 | 0.00 | 0.00 | 19 | 1001.4 | |
| 20260503183748 | 37 | 0.0 | 0.0 | 0.00 | 0.00 | 0.00 | 20 | 1001.5 | |
| 20260503182748 | 41 | 0.0 | 0.0 | 0.00 | 0.00 | 0.00 | 16 | 1000.4 | |
| 20260503181748 | 38 | 0.0 | 0.0 | 0.00 | 0.00 | 0.00 | 19 | 1000.9 | |
| 20260503180748 | 35 | 0.0 | 0.0 | 0.00 | 0.00 | 0.00 | 22 | 1002.0 | |
| 20260503175748 | 40 | 0.0 | 0.0 | 0.00 | 0.00 | 0.00 | 18 | 1000.5 | |
| 20260503174747 | 40 | 0.0 | 0.0 | 0.00 | 0.00 | 0.00 | 18 | 1000.6 | |
| 20260503173748 | 40 | 0.0 | 0.0 | 0.00 | 0.00 | 0.00 | 18 | 1000.5 | |
| 20260503172748 | 37 | 0.0 | 0.0 | 0.00 | 0.00 | 0.00 | 20 | 1001.0 | |
| 20260503171747 | 40 | 0.0 | 0.0 | 0.00 | 0.00 | 0.00 | 18 | 1000.2 | |
| 20260503170748 | 36 | 0.0 | 0.0 | 0.00 | 0.00 | 0.00 | 21 | 1001.4 | |
| 20260503150748 | 45 | 0.0 | 0.0 | 0.00 | 0.00 | 0.00 | 11 | 998.0 | |
| 20260503130747 | 45 | 0.0 | 0.0 | 0.00 | 0.00 | 0.00 | 12 | 999.1 | |
| 20260503110747 | 43 | 0.0 | 0.0 | 0.00 | 0.00 | 0.00 | 13 | 1000.8 | |
| 20260503080748 | 45 | 0.0 | 0.0 | 0.00 | 0.00 | 0.00 | 15 | 1001.6 | |
| 20260503072747 | 45 | 0.0 | 0.0 | 0.00 | 0.00 | 0.00 | 16 | 1002.0 | |
| 20260503071747 | 44 | 0.0 | 0.0 | 0.00 | 0.00 | 0.00 | 16 | 1001.9 | |
| 20260503070747 | 42 | 0.0 | 0.0 | 0.00 | 0.00 | 0.00 | 17 | 1002.3 |